Regional Weather Roundup
Issued by NWS

Home | Current Version | Previous Version | Text Only | Print | Product List | Glossary On
Versions: 1 2 3 4 5 6 7 8 9 10 11 12 13 14 15 16 17 18 19 20 21 22 23 24 25 26 27 28 29 30 31 32 33 34 35 36 37 38 39 40 41 42 43 44 45 46 47 48 49 50
000
ASUS42 KTBW 040417
RWRFL
FLORIDA REGIONAL WEATHER ROUNDUP
NATIONAL WEATHER SERVICE TAMPA BAY RUSKIN FL
1200 AM EDT WED MAY 04 2016

NOTE: "FAIR" INDICATES FEW OR NO CLOUDS BELOW 12,000 FEET WITH NO
SIGNIFICANT WEATHER AND/OR OBSTRUCTIONS TO VISIBILITY.

FLZ001>010-012>015-112-114-115-040500-
PANHANDLE FLORIDA

CITY           SKY/WX    TMP DP  RH WIND       PRES   REMARKS
PENSACOLA      CLOUDY    71  64  78 N8        29.89S
MILTON NAS     MOCLDY    69  66  90 CALM      29.89
CRESTVIEW      CLOUDY    70  64  81 N3        29.89F
DUKE FIELD     MOCLDY    69  63  79 NW5       29.87F
VALPARAISO     MOCLDY    69  66  88 N6        29.87S
TRI COUNTY     FAIR      68  67  96 CALM      29.87F
PANAMA CITY    FAIR      70  68  93 NW5       29.85F
TYNDALL AFB    CLEAR     74  69  82 NW13      29.85F
APALACHICOLA   CLEAR     73  72  96 W7        29.86F

STATION/POSITION SKY/WX   TEMP    WIND        PRES    WAVE   SWELL
                          AIR SEA DIR/SP/G            HT/PER HT/PER
                          (F)     (DEG/KT/KT) (MB)    (FT/S) (FT/S)
30.1N   87.6W              74 77  340/ 14/ 16 1011.4R   2/ 7   2/ 7
29.2N   88.2W              75 77  320/ 12/ 14 1012.1R
28.8N   86.0W              77 78  250/ 10/ 12 1011.8F   2/ 7   2/ 7
PANAMA CITY BEAC           73 78  310/ 10/ 13 1011.7R
TOWER C                    75     270/ 13/ 13 1012.0F
28.5N   84.5W              77 76  240/  4/  6 1011.6S   2/ 5   2/ 5

$$
FLZ011-016>038-118-127-128-134-139-239-040500-
NORTH FLORIDA

CITY           SKY/WX    TMP DP  RH WIND       PRES   REMARKS
MARIANNA       CLOUDY    70  69  97 CALM      29.86S
TALLAHASSEE    PTCLDY    74  68  81 W5        29.85F
PERRY          CLEAR     73  71  92 SW5       29.86S
LIVE OAK         N/A     73  73 100 CALM      29.87S
CROSS CITY       N/A     72  69  90 CALM      29.86S
LAKE CITY      MOCLDY    72  70  94 SW6       29.86S
GAINESVILLE    CLEAR     74  69  85 SW6       29.86F
WILLISTON      FAIR      73  73 100 CALM      29.87F
PALATKA        FAIR      73  73 100 SW6       29.86F
MAYPORT NAS    CLOUDY    77  67  71 SW7       29.83F
JACKSONVILLE   MOCLDY    75  68  78 SW9       29.82F
JAX NAS        CLEAR     79  67  66 SW9       29.84F
JAX CECIL      CLEAR     73  68  83 S7        29.84F
FERNANDINA BEA FAIR      79  68  69 W6        29.82S
ST AUGUSTINE   CLEAR     74  68  81 SW9       29.85F
PALM COAST     FAIR      72  70  94 SW3       29.87S

STATION/POSITION SKY/WX   TEMP    WIND        PRES    WAVE   SWELL
                          AIR SEA DIR/SP/G            HT/PER HT/PER
                          (F)     (DEG/KT/KT) (MB)    (FT/S) (FT/S)
SHELL POINT                76     270/  9/ 12 1010.0
KEATON BEACH               78     260/ 13/ 15 1010.6F
CEDAR KEY                  78     230/  8/ 11 1011.8F
FERNANDINA                 78 77  180/  1/  3 1010.3F
30.7N   81.3W                 73                N/A     2/ 7
MAYPORT                    79 74  240/  9/ 11 1010.7F
ST AUGUSTINE               75 72  220/  7/ 10 1011.4F

$$
FLZ040-043>046-052-053-057-058-063-144-040500-
INTERIOR CENTRAL FLORIDA

CITY           SKY/WX    TMP DP  RH WIND       PRES   REMARKS
OCALA          CLOUDY    72  66  83 CALM      29.88F
THE VILLAGES     N/A     75  73  94 CALM      29.78F
LEESBURG       CLOUDY    75  70  84 SW3       29.89F
SANFORD        PTCLDY    78  69  73 SW3       29.88F
ORLANDO EXEC   CLOUDY    81  70  69 CALM      29.88F
ORLANDO INTL   CLOUDY    78  70  76 CALM      29.88F
WINTER HAVEN   PTCLDY    76  72  87 SW5       29.91S
LAKELAND       CLEAR     72  70  94 SW6       29.92R
BARTOW         FAIR      72  72 100 CALM      29.92S
OKEECHOBEE     CLEAR     70  68  94 CALM      29.92F

$$
FLZ041-047-054-059-064-141-147-040500-
EAST CENTRAL FLORIDA

CITY           SKY/WX    TMP DP  RH WIND       PRES   REMARKS
DAYTONA BEACH  PTCLDY    73  68  84 S5        29.87F
DELAND           N/A     75  68  78 CALM      29.89F
JFK SPACE CTR  CLOUDY    75  70  85 W1        29.87F
CAPE CANAVERAL CLOUDY    76  73  90 NW2       29.87F
PATRICK AFB    CLOUDY    80  74  83 S9        29.89S
MELBOURNE      MOCLDY    77  70  79 SW8       29.90R
VERO BEACH     CLEAR     75  71  87 SW3       29.91S
FT PIERCE      CLEAR     73  71  93 S6        29.90F
STUART         CLEAR     77  72  83 S6        29.92F

STATION/POSITION SKY/WX   TEMP    WIND        PRES    WAVE   SWELL
                          AIR SEA DIR/SP/G            HT/PER HT/PER
                          (F)     (DEG/KT/KT) (MB)    (FT/S) (FT/S)
28.5N   80.2W              79 78  180/ 12/ 14 1012.3F
28.9N   78.5W              78 79  180/ 12/ 14 1012.6F
TRIDENT PIER               79 81  220/  2/  3 1012.3R
28.4N   80.5W                 78                N/A     2/ 7
27.5N   80.2W                 79                N/A     3/11   2/11

$$
FLZ050-056-061-142-242-148-248-149-249-151-251-155-255-
160-260-040500-
WEST CENTRAL FLORIDA

CITY           SKY/WX    TMP DP  RH WIND       PRES   REMARKS
CRYSTAL RIVER  FAIR      72  72 100 CALM      29.88F
INVERNESS      FAIR      72  72 100 CALM      29.89F
BROOKSVILLE    MOCLDY    71  70  96 S3        29.91R
ZEPHYRHILLS    FAIR      68  65  89 CALM      29.91R
CLEARWATER AIR MOCLDY    77  72  83 CALM      29.90S
ST PETE CLEARW CLEAR     77  72  84 W5        29.90S
TAMPA INTL     PTCLDY    78  72  81 SW9       29.91R
TAMPA EXEC     CLEAR     75  70  83 CALM      29.91R
PLANT CITY     CLEAR     77  73  88 S5        29.93R
MACDILL AFB    CLEAR     77  75  93 SW6       29.90S
PETER O KNIGHT CLEAR     81  73  78 SW5       29.91S
ST PETERSBURG  CLEAR     79  72  79 W5        29.89S
SARASOTA       MOCLDY    80  72  76 W7        29.91R
VENICE         NOT AVBL

STATION/POSITION SKY/WX   TEMP    WIND        PRES    WAVE   SWELL
                          AIR SEA DIR/SP/G            HT/PER HT/PER
                          (F)     (DEG/KT/KT) (MB)    (FT/S) (FT/S)
27.3N   84.2W                 80                N/A     2/ 7
CLEARWATER BEACH           79 82  220/  8/ 10 1012.8R
MIDDLE TAMPA BAY           79     250/  6/ 10 1012.9R
VENICE                     79 84  230/  6/  7 1012.5S

$$
FLZ066-069-070-075>078-162-262-165-265-040500-
SOUTHWEST FLORIDA AND KEYS

CITY           SKY/WX    TMP DP  RH WIND       PRES   REMARKS
PUNTA GORDA    PTCLDY    74  72  93 E5        29.93R
FT MYERS       PTCLDY    78  74  87 CALM      29.91R
SOUTHWEST INTL PTCLDY    77  74  90 CALM      29.91R
NAPLES         PTCLDY    79  76  90 S3        29.91S
MARCO ISLAND   CLEAR     79  72  78 SW3       29.91F
MARATHON       PTCLDY    80  75  84 CALM      29.94S
KEY WEST NAS   CLEAR     80  75  84 CALM      29.94F
KEY WEST INTL  CLEAR     78  77  96 CALM      29.94F

STATION/POSITION SKY/WX   TEMP    WIND        PRES    WAVE   SWELL
                          AIR SEA DIR/SP/G            HT/PER HT/PER
                          (F)     (DEG/KT/KT) (MB)    (FT/S) (FT/S)
NAPLES                        85              1012.8F
26.0N   85.6W              80 80  210/ 12/ 14 1012.6F   2/ 7   2/ 7
DRY TORTUGAS               79        CALM     1013.6F
SAND KEY                   80      50/  3/  4 1014.3S
LONG KEY                   81 84  310/  3/  3 1014.3R
MOLASSES REEF              81     330/  7       N/A

$$
FLZ067-068-071>074-168-172>174-040500-
SOUTHEAST FLORIDA

CITY           SKY/WX    TMP DP  RH WIND       PRES   REMARKS
W PALM BEACH   PTCLDY    75  70  84 SE6       29.93F
FT LAUDER-EXEC CLEAR     78  69  73 CALM      29.92F
FT LAUDERDALE  CLEAR     80  71  74 SW5       29.92F
POMPANO BEACH  CLEAR     78  73  84 NE3       29.92F
PEMBROKE PINES CLEAR     78  71  79 CALM      29.94F
OPA LOCKA      CLEAR     77  72  84 SE3       29.93F
MIAMI          CLEAR     77  74  90 NE3       29.93S
WEST KENDALL   CLEAR     76  74  93 SW3       29.92F
HOMESTEAD      CLEAR     76  74  94 SW5       29.93S

STATION/POSITION SKY/WX   TEMP    WIND        PRES    WAVE   SWELL
                          AIR SEA DIR/SP/G            HT/PER HT/PER
                          (F)     (DEG/KT/KT) (MB)    (FT/S) (FT/S)
PORT EVERGLADES            80     190/  3/  4 1013.7R
VIRGINIA KEY               80 82  170/  3/  4 1014.0R
LAKE WORTH                 78 80   90/ 12/ 15 1013.8R
SETTLEMENT POINT           79     180/  8/  9 1013.6F

$$




USA.gov is the U.S. government's official web portal to all federal, state and local government web resources and services.